www.pogodaiklimat.ru

Архив погоды в Рубцовске (Алтайский край, Россия)

Время
(UTC), дата
00 22.06
03 22.06
06 22.06
09 22.06
12 22.06
15 22.06
18 22.06
21 22.06
00 23.06
03 23.06
06 23.06
09 23.06
12 23.06
15 23.06
18 23.06
21 23.06
00 24.06
03 24.06
06 24.06
09 24.06
12 24.06
15 24.06
18 24.06
21 24.06
00 25.06
03 25.06
06 25.06
09 25.06
12 25.06
15 25.06
18 25.06
21 25.06
00 26.06
03 26.06
06 26.06
09 26.06
12 26.06
15 26.06
18 26.06
21 26.06
00 27.06
03 27.06
06 27.06
09 27.06
12 27.06
15 27.06
18 27.06
21 27.06
00 28.06
03 28.06
06 28.06
09 28.06
12 28.06
15 28.06
18 28.06
Ветер
(напр.,м/с)
Видим. Явления Облачность Т
(С)
Тd
(С)
f
(%)
Тe
(С)
Тes
(С)
Комфортность P
(гПа)
Po
(гПа)
Тmin
(С)
Tmax
(С)
R
(мм)
R24
(мм)
S
(см)
З 1 20 км 8/0
[Ac cast Ci]
+19.7 +12.8 64 +22 +23 комфорт 1001.1 976.4 +18.4 1
С 1 20 км 10/1 1000 м
[Sc Ac cast Cc]
+23.6 +8.9 39 +24 +29 комфорт 1002.9 978.5
Ю 1 20 км 10/3 1000 м
[Cu med, cong Ac cast Cc]
+26.5 +9.7 35 +27 +34 жарко 1003.5 979.3
Ю 3 20 км 1/0
[Ac As]
+30.8 +10.9 29 +31 +41 жарко 1000.8 977.1
Ю 3 20 км 5/0
[Ac cast Ci sp]
+31.3 +10.5 28 +31 +33 жарко 998.4 974.7 +33.1
З 3 20 км 3/3 600 м
[Sc]
+26.3 +9.1 34 +27 +27 жарко 999.5 975.4
З 2 20 км ясно +21.9 +13.0 57 +25 +25 комфорт 1001.4 976.9
ЮЗ 1 20 км ясно +18.0 +10.5 62 +19 +19 тепло 1003.1 978.3
ЮЗ 2 20 км ясно +17.0 +8.8 58 +17 +18 тепло 1005.1 980.1 +16.3
ЮЗ 4 20 км 1/0
[Ci fib]
+25.7 +8.6 34 +26 +32 жарко 1005.0 980.7
З 4
{10}
20 км 1/0
[Ci]
+30.1 +7.4 24 +29 +40 жарко 1003.6 979.7
З 5 20 км 1/1 1000 м
[Cu hum]
+31.8 +7.6 22 +30 +37 жарко 1002.1 978.4
З 4
{11}
20 км 5/4 1000 м
[Sc diur, vesp Ac cuf]
+31.1 +10.0 27 +31 +32 жарко 1001.0 977.2 +32.1
СЗ 4 20 км 6/3 1000 м
[Sc diur, vesp Ci sp]
+26.2 +7.2 30 +26 +26 жарко 1002.4 978.2
СЗ 2 20 км ясно +18.2 +7.7 50 +19 +19 тепло 1005.0 980.1
ЮЗ 2 20 км ясно +18.3 +11.4 64 +19 +19 тепло 1005.3 980.4
СЗ 3 20 км ясно +17.7 +12.1 70 +18 +19 тепло 1006.9 982.0 +14.0
СЗ 5 20 км 1/0
[Ci fib]
+25.0 +8.1 34 +25 +30 комфорт 1007.6 983.2
З 4 20 км 8/8 1000 м
[Cu hum]
+27.1 +7.5 29 +27 +29 жарко 1007.4 983.1
С 4 20 км 5/5 1000 м
[Cu hum]
+27.6 +6.9 27 +27 +31 жарко 1007.1 982.9
СЗ 3 20 км 3/3 1000 м
[Cu hum]
+28.4 +6.4 25 +27 +30 жарко 1006.9 982.7 +29.2
В 1 20 км ясно +23.3 +9.6 42 +25 +25 комфорт 1008.3 983.7
Ю 1 20 км ясно +17.3 +10.5 64 +18 +18 тепло 1008.8 983.7
ЮЗ 2 20 км 6/0
[Ci fib]
+17.4 +12.4 72 +18 +18 тепло 1008.2 983.1
ЮЗ 2 20 км 3/0
[Ci fib]
+18.1 +13.0 72 +19 +20 тепло 1008.3 983.3 +15.4
ЮЗ 2 20 км 3/0
[Ac trans]
+26.5 +13.1 44 +28 +36 жарко 1007.9 983.6
ЮЗ 2 20 км 6/4 1000 м
[Cu hum Ci sp]
+31.3 +9.8 26 +31 +40 жарко 1006.7 982.8
З 1 20 км 6/6 1000 м
[Cu med, cong]
+33.6 +8.6 21 +32 +38 жарко 1004.8 981.2
Ю 1 20 км 3/3 1000 м
[Cu hum]
+33.1 +10.1 24 +32 +35 жарко 1004.0 980.4 +34.2
ЮВ 3 20 км 1/0
[Ac cast]
+27.8 +11.8 37 +29 +29 жарко 1003.7 979.6
Ю 4 20 км 8/0
[Ac trans]
+26.8 +11.6 39 +28 +28 жарко 1002.7 978.6
Ю 4 20 км 8/0
[Ac cast Ci fib]
+24.6 +10.2 40 +26 +26 жарко 1001.1 976.8
Ю 6-10
{10}
20 км в посл. час гроза 10/5 600 м
[Cb cap Ac cast Ci fib]
+25.1 +10.4 40 +26 +26 жарко 999.6 975.4 +23.5 0.0
Ю 7-12
{13}
20 км {ливн. дождь} 10/0
[Ac cast Ci sp]
+27.3 +11.4 37 +28 +30 жарко 998.3 974.4
Ю 7-12
{13}
20 км {ливн. дождь} 5/0
[Ac cast Ci fib]
+34.4 +9.6 22 +33 +37 жарко 997.1 973.7
ЮЗ 7-11
{16}
20 км 5/5 1000 м
[Cu med, cong]
+36.8 +9.0 18 +35 +37 очень
жарко
995.2 972.0
ЮЗ 8-14
{16}
20 км 8/6 600 м
[Cb cap Ci sp]
+34.1 +9.4 22 +33 +33 жарко 996.3 972.9 +37.4 0.0
ЮЗ 2
{17}
20 км {гроза, ливн. дождь} 10/10 600 м
[Cb cap]
+26.4 +14.3 47 +29 +29 жарко 999.8 975.8
Ю 3
{17}
20 км гроза, ливневой дождь 10/10 1000 м
[Cb cap]
+22.2 +15.7 67 +26 +26 душно 1001.3 976.9
В 1 20 км {гроза, ливн. дождь} 10/3 1000 м
[Sc Ci sp]
+19.8 +15.6 77 +23 +23 комфорт 998.9 974.4
СВ 2
{13}
20 км {гроза, ливн. дождь} 10/10 1000 м
[Cb cap]
+20.0 +16.7 81 +23 +23 комфорт 1001.2 976.6 +18.8 12
ЮВ 4 20 км в посл. час гроза {ливн. дождь} 10/6 600 м
[Cb cap Ci fib]
+23.1 +17.7 72 +29 +31 очень
душно
999.2 974.9
Ю 7-13
{13}
20 км {гроза, ливн. дождь} 8/3 600 м
[Cb cap Ac cast Ci sp]
+29.6 +14.1 39 +32 +34 душно 994.9 971.2
Ю 12-17
{17}
20 км 8/3 600 м
[Cb cap Ac cast Ci]
+29.2 +13.9 39 +31 +31 жарко 992.6 968.9
СЗ 7
{17}
20 км гроза без осадков {ливн. дождь} 10/8 600 м
[Cb cap Ac cast Ci sp]
+22.6 +16.6 69 +27 +27 душно 997.5 973.3 +30.2 8
З 4
{12}
20 км {гроза, ливн. дождь} 3/3 600 м
[Cb cap]
+17.5 +10.3 63 +17 +17 по сезону 1002.3 977.4
З 3
{12}
20 км {гроза, ливн. дождь} ясно +14.1 +6.7 61 +13 +13 по сезону 1006.2 980.9
З 3 20 км 1/0
[Ci fib]
+13.2 +7.5 68 +12 +12 по сезону 1007.6 982.2
З 3 20 км ясно +13.1 +8.5 74 +12 +13 тепло 1009.5 984.0 +11.9 0.4
З 3 20 км 5/5 1000 м
[Cu hum]
+17.1 +6.9 51 +17 +21 тепло 1010.0 984.9
ЮЗ 3 20 км 8/8 1000 м
[Cu hum]
+19.6 +6.2 42 +21 +23 комфорт 1009.8 984.9
ЮЗ 2 20 км 3/3 1000 м
[Cu hum]
+22.6 +5.2 32 +23 +32 комфорт 1008.6 983.9
ЮЗ 3 20 км ясно +24.0 +4.9 29 +24 +27 комфорт 1007.2 982.7 +24.1
ЮВ 2 20 км 1/0
[Ac cast]
+20.3 +6.5 41 +22 +22 комфорт 1006.6 981.9
ЮВ 3 20 км ясно +17.2 +8.6 57 +17 +17 тепло 1005.7 980.7
Местоположение метеостанции Рубцовск (Алтайский край, Россия): широта 51.58 долгота 81.20 высота над уровнем моря 219 м.
В архиве по умолчанию представлена погода в Рубцовске за последнюю неделю. Архивные данные за месяц целиком и за предыдущие месяцы, начиная с января 2011 года, Вы можете получить, выбрав интересующий диапазон дат из раскрывающегося списка и нажав кнопку "Найти!".
*Определитесь, кто Вы:
Внимание! Время в таблицах - всемирное. Для получения местного времени необходимо прибавить поправку, которая равна 7 ч.
Смотрите также архив погоды в соседних городах и на ближайших метеорологических станциях:
Партнеры нашего сайта:
Независимая экспертиза документов
Все виды криминалистических экспертиз. Квалифицированные эксперты
expert-center.ru

     
Пояснения к столбцам:
  • Ветер - указаны скорость ветра в м/с - средняя за 10 мин, порывы в срок и между сроками (в фигурных скобках) и направление, откуда дует ветер: С - северный,
  • СВ - северо-восточный, В - восточный, ЮВ - юго-восточный, Ю - южный, ЮЗ - юго-западный, З - западный, СЗ - северо-западный.
  • Видимость - горизонтальная дальность видимости в метрах или километрах. При видимости от 1 до 10 км при отсутствии осадков обычно наблюдается дымка, при ухудшении видимости до 1 км и менее - туман. В сухую погоду видимость может ухудшаться дымом, пылью или мглою.
  • Явления - указаны атмосферные явления, наблюдавшиеся в срок или в последний час перед сроком; фигурными скобками обозначены явления, наблюдавшиеся между сроками (за 1-3 часа до срока); квадратными скобками обозначены град или гололедные отложения с указанием их диаметра в мм.
  • Облачность - указаны через наклонную черту общая и нижняя облачность в баллах и высота нижней границы облаков в метрах; квадратными скобками обозначены формы облаков: Ci - перистые, Cs - перисто-слоистые, Cc - перисто-кучевые, Ac - высококучевые, As - высокослоистые, Sc - слоисто-кучевые, Ns - слоисто-дождевые, Cu - кучевые, Cb - кучево-дождевые. Подробнее классификацию облаков см. в Атласе облаков (PDF).
  • T - Температура воздуха - температура, измеренная на высоте 2 м над землей.
  • Td - Температура точки росы - температура, при понижении до которой содержащийся в воздухе водяной пар достигнет насыщения.
  • f - Относительная влажность воздуха - влажноcть воздуха, измеренная на высоте 2 м над землей.
  • Te - Эффективная температура - температура, которую ощущает одетый по сезону человек в тени. Характеристика душности погоды. При расчете учитывается влияние влажности воздуха и скорости ветра на теплоощущения человека.
  • Tes - Эффективная температура на солнце - температура, которую ощущает человек, с поправкой на солнечный нагрев. Характеристика знойности погоды. Зависит от высоты солнца над горизонтом, облачности и скорости ветра. Ночью, в пасмурную погоду, а также при ветре 12 м/с и более поправка равна нулю.
  • P - Атмосферное давление - приведенное к уровню моря атмосферное давление.
  • Po - Атмосферное давление - измеренное на уровне метеостанции атмосферное давление.
  • Tmin - Минимальная температура - минимум температуры воздуха на высоте 2 м над землей.
  • Tmax - Максимальная температура - максимум температуры воздуха на высоте 2 м над землей.
  • R - Количество осадков - Количество выпавших осадков за период времени, мм. При наведении курсора мыши на число - период времени, за который выпало указанное количество осадков.
  • R24 - Количество осадков - Количество выпавших осадков за 24 часа, мм.
  • S - Снежный покров - Высота снежного покрова, см. При наведении курсора мыши на число - состояние снежного покрова и степень покрытия местности в баллах.